Tracking 19846 objects as of 19-Sep-2019
HD Live streaming from Space Station
objects crossing your sky now

FENGYUN 1C DEB

Track FENGYUN 1C DEB now!
10-day predictions


NORAD ID: 31074
Int'l Code: 1999-025BFU
Perigee: 831.7 km
Apogee: 981.6 km
Inclination: 99.0 °
Period: 103.0 minutes
Semi major axis: 7277 km
RCS: 0.0165 m2 (small)
Launch date: May 10, 1999
Source: People's Republic of China (PRC)
Launch site: Taiyaun Space Center, China (TSC)

Note: This is SATELLITE DEBRIS
aabbcc
Your satellite tracking list
Your tracking list is empty




NASA's NSSDC Master Catalog

Two Line Element Set (TLE):
1 31074U 99025BFU 19260.73353007  .00000411  00000-0  30331-3 0  9995
2 31074  99.0031 173.0071 0103019 113.6635 247.5382 13.98358397636481
Source of the keplerian elements: AFSPC